Regional Weather Roundup
Issued by NWS Midland/Odessa, TX

Skip options and go directly to product.
Home | Oldest Version | Previous Version | Current Version | All | Graphics & Text | Save Text | Print | Product List | Glossary On

Skip product version selection by date and time.   
230
ASUS44 KMAF 280110
RWRMAF
MIDLAND AREA WEATHER ROUNDUP
NATIONAL WEATHER SERVICE MIDLAND TX
800 PM CDT WED MAY 27 2015

...IN SOUTHWEST TEXAS AND SOUTHEAST NEW MEXICO...

CITY           SKY/WX    TMP DP  RH WIND       PRES   REMARKS
ALPINE         PTCLDY    82  59  45 SE15G23   30.05R
ANDREWS        FAIR      81  61  51 S13G18    29.99R
ARTESIA        MOSUNNY   88  41  19 SE9       29.94R
BIG SPRING     PTCLDY    85  61  44 SE13      29.98S
CARLSBAD       MOSUNNY   80  56  43 SE20G30   29.92R
DRYDEN           N/A     83  69  62 SE16G26   29.92F
FORT STOCKTON  MOCLDY    82  62  50 SE22G38   29.90S
GUAD PASS      PTSUNNY   79  41  25 E12       30.07S
HOBBS          MOCLDY    82  55  39 S23G41    30.01R
MARFA          PTCLDY    82  36  18 S14       30.03S
MIDLAND AIRPK  CLOUDY    85  63  47 SE14G23   29.98R
MIDLAND INTL   CLOUDY    84  63  49 S15       29.98R
ODESSA         CLOUDY    84  61  45 S17G24    29.99R
PECOS          CLOUDY    81  64  56 E12G17    29.90R
PRESIDIO       FAIR      97  42  15 E15       29.82S
SEMINOLE       CLOUDY    81  59  47 SE10      29.99R
SNYDER         CLEAR     83  65  54 SE7       29.97R
WINK           CLOUDY    85  61  44 E18       29.93R
$$
...OTHER STATIONS IN TEXAS...

CITY           SKY/WX    TMP DP  RH WIND       PRES   REMARKS
ABILENE        CLEAR     82  66  58 SE14      29.98R
AMARILLO       MOCLDY    71  51  49 SE18      30.01S
AUSTIN         MOCLDY    81  73  76 S10       29.98R
BROWNSVILLE    CLOUDY    83  77  82 E13       29.95S
CORPUS CHRISTI MOCLDY    82  74  76 SE14      29.98R
DALLAS FTW     MOCLDY    79  69  71 SE10      30.00R THUNDER
DEL RIO        CLOUDY    83  69  62 E9        29.91F
EL PASO        CLOUDY    89  18   7 NW6       29.93S
HOUSTON INT    PTCLDY    82  70  66 S6        30.02R
LUBBOCK        CLOUDY    80  61  52 S22G28    29.97R
SAN ANGELO     MOCLDY    80  59  48 SE14      29.96R
SAN ANTONIO    MOCLDY    83  70  64 SE15      29.99R
WACO           CLOUDY    82  71  69 SE10      29.99S
WICHITA FALLS  NOT AVBL
$$
...OTHER LOCATIONS IN NEW MEXICO...

CITY           SKY/WX    TMP DP  RH WIND       PRES   REMARKS
ALAMAGORDO     PTSUNNY   86  18   8 SW13      29.97S
ALBUQUERQUE    CLOUDY    76  33  21 SE3       30.04F
CANNON AFB     PTSUNNY   78  52  39 S7        30.00S
CLOVIS         PTCLDY    77  52  41 S7          N/A
HOLLOMAN AFB   PTSUNNY   88  14   6 SW8       29.94S
ROSWELL        MOSUNNY   86  41  20 S10       29.93F
RUIDOSO        PTSUNNY   73  19  13 SW12      30.18R
SANTA FE       PTSUNNY   70  28  21 W7        30.11F
TRUTH OR CONSE MOSUNNY   84  13   7 S15       29.98S
TUCUMCARI      MOSUNNY   80  40  23 SW12      29.96S
$$

USA.gov is the U.S. government's official web portal to all federal, state and local government web resources and services.